星链-6371 (STARLINK-6371 )

导读 | 豆包AI

STARLINK-6371是美国太空探索技术公司(SpaceX)星链(Starlink)互联网卫星项目下的卫星,于2023年7月16日发射升空,归属星链第二代卫星组网。星链项目旨在通过低轨卫星星座,为全球提供高速卫星互联网接入服务,该卫星的发射推进了星链星座的部署进程,扩大了项目全球网络覆盖范围。

基本信息
目录编号:
57381
目录名称:
STARLINK-6371
国际标识:
2023-099BF
轨道中心:
EARTH
卫星名称:
星链-6371
卫星全名:
星链-6371 (STARLINK-6371 )
卫星状态:
在轨 (已飞行973 天)
发射日期:
2023-07-16 UTC
国别 :
美国 (US)
星等 :
--
轨道信息
数据来源 国际轨道数据
星历时间: 2026-03-15T22:00:02+0800
9小时前
查看轨道信息
半长轴: 6879.368km
偏心率: 0.000154
轨道倾角: 43.003°
近地点辐角 281.882°
升交点赤经 190.049°
平近点角 60.223°
近地点: 500.171km
远地点: 502.291km
周期: 94.642分钟
每日圈数: 15.215282
详细信息
固有亮度:
5
最大亮度:
2.5
卫星平台:
Starlink v1.5
覆盖范围:
全球
运营商:
太空探索技术公司
运营商所在国:
美国
制造商(研发单位):
太空探索技术公司
制造商所在国:
美国
使用方式:
暂无
卫星简介
星链(Starlink)计划是由太空探索技术公司(SpaceX)提出的一个巨型低轨卫星互联网星座项目,计划在2019年至2024年间在太空搭建由约1.2万颗卫星组成的“星链”网络,其中1584颗将部署在地球上空550千米处的近地轨道,并从2020年开始工作。该卫星仍在工作。
2D轨道图
3D轨道图
轨道高度分析图
轨道倾角分析图
轨道综合分析图
查看轨道综合分析图